• In Hungary
  • List of Countries
  • For 7 days
  • Water Temperature
  • Satellite Maps
  • Weather Map
  • News
  • Weather Widgets
  • user-avatar
    Login

    Hourly Weather Wieliczka

    Today, 20 September, Thursday

    Time Temperature Precipitation Wind Pressure Humidity
    00:00 +16°C° 0 mm 2 mps 741 mmHg 70%
    01:00 +16°C° 0 mm 2 mps 741 mmHg 72%
    02:00 +16°C° 0 mm 2 mps 741 mmHg 73%
    03:00 +16°C° 0 mm 1 mps 741 mmHg 74%
    04:00 +15°C° 0 mm 1 mps 741 mmHg 75%
    05:00 +16°C° 0 mm 1 mps 741 mmHg 72%
    06:00 +18°C° 0 mm 1 mps 741 mmHg 70%
    07:00 +19°C° 0 mm 1 mps 741 mmHg 68%
    08:00 +21°C° 0 mm 1 mps 741 mmHg 60%
    09:00 +24°C° 0 mm 1 mps 741 mmHg 52%
    10:00 +26°C° 0 mm 1 mps 741 mmHg 44%
    11:00 +27°C° 0 mm 1 mps 741 mmHg 42%
    12:00 +27°C° 0 mm 1 mps 741 mmHg 39%
    13:00 +28°C° 0 mm 1 mps 741 mmHg 37%
    14:00 +28°C° 0 mm 1 mps 740 mmHg 39%
    15:00 +27°C° 0 mm 1 mps 740 mmHg 41%
    16:00 +27°C° 0 mm 1 mps 740 mmHg 42%
    17:00 +25°C° 0 mm 1 mps 740 mmHg 48%
    18:00 +23°C° 0 mm 1 mps 740 mmHg 53%
    19:00 +21°C° 0 mm 1 mps 740 mmHg 58%
    20:00 +20°C° 0 mm 1 mps 740 mmHg 62%
    21:00 +19°C° 0 mm 1 mps 740 mmHg 65%
    22:00 +19°C° 0 mm 1 mps 740 mmHg 68%
    23:00 +18°C° 0 mm 1 mps 739 mmHg 70%

    Tomorrow, 21 September, Friday

    Time Temperature Precipitation Wind Pressure Humidity
    00:00 +18°C° 0 mm 1 mps 739 mmHg 71%
    01:00 +18°C° 0 mm 1 mps 739 mmHg 73%
    02:00 +16°C° 0 mm 1 mps 739 mmHg 74%
    03:00 +16°C° 0 mm 1 mps 739 mmHg 75%
    04:00 +16°C° 0 mm 1 mps 738 mmHg 76%
    05:00 +18°C° 0 mm 1 mps 738 mmHg 73%
    06:00 +18°C° 0 mm 2 mps 738 mmHg 71%
    07:00 +18°C° 0 mm 2 mps 738 mmHg 68%
    08:00 +21°C° 0 mm 2 mps 738 mmHg 60%
    09:00 +24°C° 0 mm 3 mps 738 mmHg 51%
    10:00 +27°C° 0 mm 3 mps 738 mmHg 43%
    11:00 +27°C° 0 mm 3 mps 738 mmHg 40%
    12:00 +28°C° 0 mm 4 mps 737 mmHg 37%
    13:00 +29°C° 0 mm 4 mps 737 mmHg 34%
    14:00 +28°C° 0 mm 4 mps 736 mmHg 37%
    15:00 +28°C° 0 mm 4 mps 736 mmHg 40%
    16:00 +28°C° 0 mm 4 mps 736 mmHg 43%
    17:00 +25°C° 0 mm 3 mps 736 mmHg 48%
    18:00 +22°C° 0 mm 3 mps 735 mmHg 53%
    19:00 +20°C° 0 mm 3 mps 735 mmHg 59%
    20:00 +20°C° 0 mm 3 mps 735 mmHg 59%
    21:00 +19°C° 0 mm 3 mps 736 mmHg 59%
    22:00 +19°C° 0 mm 3 mps 736 mmHg 59%
    23:00 +19°C° 0 mm 3 mps 736 mmHg 59%

    Day after tomorrow, 22 September, Saturday

    Time Temperature Precipitation Wind Pressure Humidity
    00:00 +19°C° 0 mm 3 mps 736 mmHg 59%
    01:00 +19°C° 0 mm 3 mps 737 mmHg 59%
    02:00 +18°C° 0.1 mm 3 mps 737 mmHg 66%
    03:00 +17°C° 0.1 mm 3 mps 737 mmHg 73%
    04:00 +16°C° 0.1 mm 3 mps 738 mmHg 79%
    05:00 +15°C° 0.4 mm 2 mps 738 mmHg 80%
    06:00 +15°C° 0.4 mm 2 mps 738 mmHg 81%
    07:00 +15°C° 0.4 mm 2 mps 739 mmHg 81%
    08:00 +15°C° 0.5 mm 2 mps 739 mmHg 81%
    09:00 +14°C° 0.5 mm 2 mps 739 mmHg 81%
    10:00 +13°C° 0.5 mm 3 mps 740 mmHg 80%
    11:00 +13°C° 1.1 mm 3 mps 740 mmHg 81%
    12:00 +12°C° 1.1 mm 3 mps 740 mmHg 81%
    13:00 +12°C° 1.1 mm 4 mps 740 mmHg 82%
    14:00 +12°C° 0.8 mm 3 mps 740 mmHg 80%
    15:00 +12°C° 0.8 mm 3 mps 740 mmHg 79%
    16:00 +11°C° 0.8 mm 3 mps 740 mmHg 77%
    17:00 +11°C° 0 mm 3 mps 740 mmHg 79%
    18:00 +10°C° 0 mm 3 mps 740 mmHg 81%
    19:00 +10°C° 0 mm 3 mps 740 mmHg 82%
    20:00 +9°C° 0 mm 3 mps 740 mmHg 83%
    21:00 +9°C° 0 mm 3 mps 740 mmHg 83%
    22:00 +9°C° 0 mm 3 mps 740 mmHg 84%
    23:00 +9°C° 0 mm 3 mps 740 mmHg 85%

    23 September, Sunday

    Time Temperature Precipitation Wind Pressure Humidity
    00:00 +9°C° 0 mm 3 mps 740 mmHg 86%
    01:00 +8°C° 0 mm 3 mps 740 mmHg 86%
    02:00 +8°C° 0 mm 3 mps 740 mmHg 87%
    03:00 +8°C° 0 mm 3 mps 740 mmHg 87%
    04:00 +8°C° 0 mm 3 mps 740 mmHg 87%
    05:00 +9°C° 0 mm 3 mps 740 mmHg 85%
    06:00 +9°C° 0 mm 3 mps 740 mmHg 82%
    07:00 +10°C° 0 mm 3 mps 740 mmHg 80%
    08:00 +12°C° 0 mm 3 mps 740 mmHg 71%
    09:00 +13°C° 0 mm 3 mps 740 mmHg 61%
    10:00 +15°C° 0 mm 4 mps 740 mmHg 52%
    11:00 +17°C° 0 mm 4 mps 740 mmHg 50%
    12:00 +17°C° 0 mm 4 mps 739 mmHg 47%
    13:00 +18°C° 0 mm 4 mps 739 mmHg 44%
    14:00 +18°C° 0 mm 4 mps 738 mmHg 47%
    15:00 +18°C° 0 mm 4 mps 737 mmHg 50%
    16:00 +18°C° 0 mm 3 mps 737 mmHg 52%
    17:00 +16°C° 0.1 mm 3 mps 736 mmHg 59%
    18:00 +14°C° 0.1 mm 3 mps 735 mmHg 65%
    19:00 +13°C° 0.1 mm 3 mps 734 mmHg 71%
    20:00 +13°C° 0.1 mm 3 mps 733 mmHg 71%
    21:00 +13°C° 0.1 mm 3 mps 732 mmHg 71%
    22:00 +13°C° 0.1 mm 4 mps 731 mmHg 71%
    23:00 +14°C° 0 mm 4 mps 730 mmHg 69%

    24 September, Monday

    Time Temperature Precipitation Wind Pressure Humidity
    00:00 +14°C° 0 mm 4 mps 729 mmHg 66%
    01:00 +15°C° 0 mm 5 mps 727 mmHg 64%
    02:00 +15°C° 0.1 mm 5 mps 726 mmHg 64%
    03:00 +16°C° 0.1 mm 5 mps 725 mmHg 64%
    04:00 +16°C° 0.1 mm 5 mps 724 mmHg 64%
    05:00 +15°C° 1.6 mm 6 mps 724 mmHg 70%
    06:00 +15°C° 1.6 mm 6 mps 724 mmHg 76%
    07:00 +14°C° 1.6 mm 6 mps 723 mmHg 81%
    08:00 +14°C° 0.3 mm 7 mps 723 mmHg 80%
    09:00 +12°C° 0.3 mm 8 mps 723 mmHg 79%
    10:00 +12°C° 0.3 mm 9 mps 724 mmHg 77%
    11:00 +11°C° 0.2 mm 10 mps 724 mmHg 76%
    12:00 +11°C° 0.2 mm 11 mps 725 mmHg 74%
    13:00 +9°C° 0.2 mm 12 mps 726 mmHg 72%
    14:00 +9°C° 0.2 mm 12 mps 727 mmHg 71%
    15:00 +9°C° 0.2 mm 12 mps 728 mmHg 70%
    16:00 +9°C° 0.2 mm 12 mps 729 mmHg 69%
    17:00 +9°C° 0.1 mm 12 mps 730 mmHg 68%
    18:00 +9°C° 0.1 mm 11 mps 731 mmHg 66%
    19:00 +9°C° 0.1 mm 11 mps 732 mmHg 65%
    20:00 +8°C° 0.2 mm 11 mps 733 mmHg 69%
    21:00 +7°C° 0.2 mm 10 mps 733 mmHg 72%
    22:00 +7°C° 0.2 mm 10 mps 734 mmHg 75%
    23:00 +7°C° 0.6 mm 9 mps 735 mmHg 77%

    25 September, Tuesday

    Time Temperature Precipitation Wind Pressure Humidity
    00:00 +6°C° 0.6 mm 9 mps 735 mmHg 78%
    01:00 +6°C° 0.6 mm 8 mps 736 mmHg 79%
    02:00 +6°C° 0.2 mm 7 mps 737 mmHg 81%
    03:00 +5°C° 0.2 mm 7 mps 737 mmHg 83%
    04:00 +5°C° 0.2 mm 6 mps 738 mmHg 84%
    05:00 +5°C° 0.3 mm 7 mps 738 mmHg 83%
    06:00 +5°C° 0.3 mm 7 mps 739 mmHg 82%
    07:00 +5°C° 0.3 mm 7 mps 740 mmHg 80%
    08:00 +6°C° 0.3 mm 7 mps 740 mmHg 76%
    09:00 +6°C° 0.3 mm 7 mps 740 mmHg 72%
    10:00 +8°C° 0.3 mm 7 mps 740 mmHg 68%
    11:00 +9°C° 0.4 mm 7 mps 741 mmHg 65%
    12:00 +9°C° 0.4 mm 7 mps 741 mmHg 62%
    13:00 +9°C° 0.4 mm 7 mps 741 mmHg 59%
    14:00 +9°C° 0.3 mm 6 mps 741 mmHg 59%
    15:00 +9°C° 0.3 mm 6 mps 741 mmHg 60%
    16:00 +9°C° 0.3 mm 6 mps 741 mmHg 61%
    17:00 +8°C° 0.2 mm 5 mps 742 mmHg 65%
    18:00 +6°C° 0.2 mm 4 mps 743 mmHg 68%
    19:00 +5°C° 0.2 mm 3 mps 743 mmHg 72%
    20:00 +5°C° 0.1 mm 3 mps 744 mmHg 73%
    21:00 +4°C° 0.1 mm 3 mps 744 mmHg 75%
    22:00 +4°C° 0.1 mm 3 mps 745 mmHg 76%
    23:00 +4°C° 0 mm 3 mps 745 mmHg 78%
    Show more